Time,TemperatureF,DewpointF,PressureIn,WindDirection,WindDirectionDegrees,WindSpeedMPH,WindSpeedGustMPH,Humidity,HourlyPrecipIn,Conditions,Clouds,dailyrainin,SoftwareType,DateUTC
2013-03-10 00:00:00,33.6,15.6,29.41,WSW,258,0.0,0.0,47,0.00,,BKN,0.00,VWS V13.01,2013-03-10 05:00:00,
2013-03-10 00:05:00,33.3,15.2,29.41,WSW,258,0.0,0.0,47,0.00,,BKN,0.00,VWS V13.01,2013-03-10 05:05:00,
2013-03-10 00:10:00,33.1,15.1,29.41,WSW,258,0.0,0.0,47,0.00,,BKN,0.00,VWS V13.01,2013-03-10 05:10:00,
2013-03-10 00:15:00,33.1,15.5,29.41,WSW,258,0.0,0.0,48,0.00,,BKN,0.00,VWS V13.01,2013-03-10 05:15:00,
2013-03-10 00:20:00,33.3,16.6,29.41,WSW,258,0.0,0.0,50,0.00,,BKN,0.00,VWS V13.01,2013-03-10 05:20:00,
2013-03-10 00:25:00,33.8,17.6,29.41,WSW,258,0.0,0.0,51,0.00,,BKN,0.00,VWS V13.01,2013-03-10 05:25:00,
2013-03-10 00:30:00,34.2,17.9,29.41,WSW,258,0.0,0.0,51,0.00,,BKN,0.00,VWS V13.01,2013-03-10 05:30:00,
2013-03-10 00:35:00,34.3,18.1,29.41,WSW,258,0.0,0.0,51,0.00,,BKN,0.00,VWS V13.01,2013-03-10 05:35:00,
2013-03-10 00:40:00,34.5,18.3,29.41,WSW,258,0.0,0.0,51,0.00,,BKN,0.00,VWS V13.01,2013-03-10 05:40:00,
2013-03-10 00:45:00,34.5,18.3,29.41,WSW,258,0.0,0.0,51,0.00,,BKN,0.00,VWS V13.01,2013-03-10 05:45:00,
2013-03-10 00:50:00,34.5,17.8,29.41,WSW,258,0.0,0.0,50,0.00,,BKN,0.00,VWS V13.01,2013-03-10 05:50:00,
2013-03-10 00:55:00,34.3,17.6,29.41,WSW,258,0.0,0.0,50,0.00,,BKN,0.00,VWS V13.01,2013-03-10 05:55:00,
2013-03-10 01:00:00,34.2,17.5,29.41,WSW,258,0.0,0.0,50,0.00,,BKN,0.00,VWS V13.01,2013-03-10 06:00:00,
2013-03-10 01:05:00,34.0,17.3,29.41,WSW,258,0.0,0.0,50,0.00,,BKN,0.00,VWS V13.01,2013-03-10 06:05:00,
2013-03-10 01:10:00,33.8,17.6,29.41,WSW,258,0.0,3.1,51,0.00,,BKN,0.00,VWS V13.01,2013-03-10 06:10:00,
2013-03-10 01:15:00,33.6,17.4,29.41,WSW,258,0.0,0.0,51,0.00,,BKN,0.00,VWS V13.01,2013-03-10 06:15:00,
2013-03-10 01:20:00,33.3,17.1,29.41,WSW,258,0.0,0.0,51,0.00,,BKN,0.00,VWS V13.01,2013-03-10 06:20:00,
2013-03-10 01:25:00,32.9,16.8,29.41,WSW,258,0.0,0.0,51,0.00,,BKN,0.00,VWS V13.01,2013-03-10 06:25:00,
2013-03-10 01:30:00,32.7,16.6,29.41,WSW,258,0.0,0.0,51,0.00,,BKN,0.00,VWS V13.01,2013-03-10 06:30:00,
2013-03-10 01:35:00,32.4,16.3,29.41,WSW,258,0.0,0.0,51,0.00,,BKN,0.00,VWS V13.01,2013-03-10 06:35:00,
2013-03-10 01:40:00,32.2,16.1,29.41,WSW,258,0.0,0.0,51,0.00,,BKN,0.00,VWS V13.01,2013-03-10 06:40:00,
2013-03-10 01:45:00,31.8,15.8,29.41,WSW,258,0.0,0.0,51,0.00,,BKN,0.00,VWS V13.01,2013-03-10 06:45:00,
2013-03-10 01:50:00,31.5,15.4,29.41,WSW,258,0.0,0.0,51,0.00,,BKN,0.00,VWS V13.01,2013-03-10 06:50:00,
2013-03-10 01:55:00,31.3,15.3,29.41,WSW,258,0.0,0.0,51,0.00,,BKN,0.00,VWS V13.01,2013-03-10 06:55:00,
2013-03-10 03:00:00,31.1,15.5,29.41,WSW,258,0.0,0.0,52,0.00,,BKN,0.00,VWS V13.01,2013-03-10 07:00:00,
2013-03-10 03:05:00,31.1,15.5,29.41,WSW,258,0.0,0.0,52,0.00,,BKN,0.00,VWS V13.01,2013-03-10 07:05:00,
2013-03-10 03:10:00,31.1,15.5,29.41,WSW,258,0.0,0.0,52,0.00,,BKN,0.00,VWS V13.01,2013-03-10 07:10:00,
2013-03-10 03:15:00,31.3,16.1,29.41,WSW,258,0.0,0.0,53,0.00,,BKN,0.00,VWS V13.01,2013-03-10 07:15:00,
2013-03-10 03:20:00,31.3,16.1,29.41,WSW,258,0.0,0.0,53,0.00,,BKN,0.00,VWS V13.01,2013-03-10 07:20:00,
2013-03-10 03:25:00,31.1,16.0,29.41,WSW,258,0.0,0.0,53,0.00,,BKN,0.00,VWS V13.01,2013-03-10 07:25:00,
2013-03-10 03:30:00,31.1,16.4,29.41,WSW,258,0.0,0.0,54,0.00,,BKN,0.00,VWS V13.01,2013-03-10 07:30:00,
2013-03-10 03:35:00,30.9,16.2,29.41,WSW,258,0.0,0.0,54,0.00,,BKN,0.00,VWS V13.01,2013-03-10 07:35:00,
2013-03-10 03:40:00,31.1,16.8,29.41,WSW,258,0.0,0.0,55,0.00,,BKN,0.00,VWS V13.01,2013-03-10 07:40:00,
2013-03-10 03:45:00,31.1,16.8,29.41,WSW,258,0.0,0.0,55,0.00,,BKN,0.00,VWS V13.01,2013-03-10 07:45:00,
2013-03-10 03:50:00,30.9,16.7,29.41,WSW,258,0.0,0.0,55,0.00,,BKN,0.00,VWS V13.01,2013-03-10 07:50:00,
2013-03-10 03:55:00,30.7,16.5,29.41,WSW,258,0.0,0.0,55,0.00,,BKN,0.00,VWS V13.01,2013-03-10 07:55:00,
2013-03-10 04:00:00,30.7,16.5,29.38,WSW,258,0.0,0.0,55,0.00,,BKN,0.00,VWS V13.01,2013-03-10 08:00:00,
2013-03-10 04:05:00,30.7,16.5,29.38,WSW,258,0.0,0.0,55,0.00,,BKN,0.00,VWS V13.01,2013-03-10 08:05:00,
2013-03-10 04:10:00,30.4,16.2,29.38,WSW,258,0.0,0.0,55,0.00,,BKN,0.00,VWS V13.01,2013-03-10 08:10:00,
2013-03-10 04:15:00,30.4,16.2,29.38,WSW,258,0.0,0.0,55,0.00,,BKN,0.00,VWS V13.01,2013-03-10 08:15:00,
2013-03-10 04:20:00,30.2,16.0,29.38,WSW,258,0.0,0.0,55,0.00,,BKN,0.00,VWS V13.01,2013-03-10 08:20:00,
2013-03-10 04:25:00,30.2,16.0,29.38,WSW,258,0.0,0.0,55,0.00,,BKN,0.00,VWS V13.01,2013-03-10 08:25:00,
2013-03-10 04:30:00,30.0,15.8,29.38,WSW,258,0.0,0.0,55,0.00,,BKN,0.00,VWS V13.01,2013-03-10 08:30:00,
2013-03-10 04:35:00,30.0,16.2,29.38,WSW,258,0.0,0.0,56,0.00,,BKN,0.00,VWS V13.01,2013-03-10 08:35:00,
2013-03-10 04:40:00,30.0,16.2,29.38,WSW,258,0.0,0.0,56,0.00,,BKN,0.00,VWS V13.01,2013-03-10 08:40:00,
2013-03-10 04:45:00,29.8,16.1,29.38,WSW,258,0.0,0.0,56,0.00,,BKN,0.00,VWS V13.01,2013-03-10 08:45:00,
2013-03-10 04:50:00,29.8,16.1,29.38,WSW,258,0.0,0.0,56,0.00,,BKN,0.00,VWS V13.01,2013-03-10 08:50:00,
2013-03-10 04:55:00,29.8,16.1,29.38,WSW,258,0.0,0.0,56,0.00,,BKN,0.00,VWS V13.01,2013-03-10 08:55:00,
2013-03-10 05:00:00,30.0,16.6,29.38,WSW,258,0.0,0.0,57,0.00,,BKN,0.00,VWS V13.01,2013-03-10 09:00:00,
2013-03-10 05:05:00,29.8,16.5,29.38,WSW,258,0.0,0.0,57,0.00,,BKN,0.00,VWS V13.01,2013-03-10 09:05:00,
2013-03-10 05:10:00,29.8,16.5,29.38,WSW,258,0.0,0.0,57,0.00,,BKN,0.00,VWS V13.01,2013-03-10 09:10:00,
2013-03-10 05:15:00,30.2,17.6,29.38,WSW,258,0.0,0.0,59,0.00,,BKN,0.00,VWS V13.01,2013-03-10 09:15:00,
2013-03-10 05:20:00,30.4,17.8,29.38,WSW,258,0.0,0.0,59,0.00,,BKN,0.00,VWS V13.01,2013-03-10 09:20:00,
2013-03-10 05:25:00,30.6,18.0,29.38,WSW,258,0.0,0.0,59,0.00,,BKN,0.00,VWS V13.01,2013-03-10 09:25:00,
2013-03-10 05:30:00,30.6,18.0,29.41,WSW,258,0.0,0.0,59,0.00,,BKN,0.00,VWS V13.01,2013-03-10 09:30:00,
2013-03-10 05:35:00,30.4,17.8,29.41,WSW,258,0.0,0.0,59,0.00,,BKN,0.00,VWS V13.01,2013-03-10 09:35:00,
2013-03-10 05:40:00,30.4,17.8,29.41,WSW,258,0.0,0.0,59,0.00,,BKN,0.00,VWS V13.01,2013-03-10 09:40:00,
2013-03-10 05:45:00,30.4,17.8,29.41,WSW,258,0.0,0.0,59,0.00,,BKN,0.00,VWS V13.01,2013-03-10 09:45:00,
2013-03-10 05:50:00,30.2,17.6,29.41,WSW,258,0.0,0.0,59,0.00,,BKN,0.00,VWS V13.01,2013-03-10 09:50:00,
2013-03-10 05:55:00,30.0,17.4,29.41,WSW,258,0.0,0.0,59,0.00,,BKN,0.00,VWS V13.01,2013-03-10 09:55:00,
2013-03-10 06:00:00,30.0,17.8,29.41,WSW,258,0.0,0.0,60,0.00,,BKN,0.00,VWS V13.01,2013-03-10 10:00:00,
2013-03-10 06:05:00,30.2,18.0,29.41,WSW,258,0.0,0.0,60,0.00,,BKN,0.00,VWS V13.01,2013-03-10 10:05:00,
2013-03-10 06:10:00,30.2,18.0,29.41,WSW,258,0.0,0.0,60,0.00,,BKN,0.00,VWS V13.01,2013-03-10 10:10:00,
2013-03-10 06:15:00,29.8,17.7,29.41,WSW,258,0.0,0.0,60,0.00,,BKN,0.00,VWS V13.01,2013-03-10 10:15:00,
2013-03-10 06:20:00,29.7,17.5,29.41,WSW,258,0.0,0.0,60,0.00,,BKN,0.00,VWS V13.01,2013-03-10 10:20:00,
2013-03-10 06:25:00,29.5,17.3,29.41,WSW,258,0.0,0.0,60,0.00,,BKN,0.00,VWS V13.01,2013-03-10 10:25:00,
2013-03-10 06:30:00,29.3,17.1,29.41,WSW,258,0.0,0.0,60,0.00,,BKN,0.00,VWS V13.01,2013-03-10 10:30:00,
2013-03-10 06:35:00,28.9,16.8,29.41,WSW,258,0.0,0.0,60,0.00,,BKN,0.00,VWS V13.01,2013-03-10 10:35:00,
2013-03-10 06:40:00,28.8,17.0,29.41,WSW,258,0.0,0.0,61,0.00,,BKN,0.00,VWS V13.01,2013-03-10 10:40:00,
2013-03-10 06:45:00,28.6,16.9,29.41,WSW,258,0.0,0.0,61,0.00,,BKN,0.00,VWS V13.01,2013-03-10 10:45:00,
2013-03-10 06:50:00,28.6,16.9,29.41,WSW,258,0.0,0.0,61,0.00,,BKN,0.00,VWS V13.01,2013-03-10 10:50:00,
2013-03-10 06:55:00,28.8,17.4,29.41,WSW,258,0.0,0.0,62,0.00,,BKN,0.00,VWS V13.01,2013-03-10 10:55:00,
2013-03-10 07:00:00,29.1,18.1,29.41,WSW,258,0.0,0.0,63,0.00,,BKN,0.00,VWS V13.01,2013-03-10 11:00:00,
2013-03-10 07:05:00,29.7,18.2,29.41,WSW,258,0.0,0.0,62,0.00,,BKN,0.00,VWS V13.01,2013-03-10 11:05:00,
2013-03-10 07:10:00,29.7,18.6,29.41,WSW,258,0.0,0.0,63,0.00,,BKN,0.00,VWS V13.01,2013-03-10 11:10:00,
2013-03-10 07:15:00,29.7,18.2,29.41,WSW,258,0.0,0.0,62,0.00,,BKN,0.00,VWS V13.01,2013-03-10 11:15:00,
2013-03-10 07:20:00,29.3,17.9,29.38,WSW,258,0.0,0.0,62,0.00,,BKN,0.00,VWS V13.01,2013-03-10 11:20:00,
2013-03-10 07:25:00,29.1,17.7,29.38,WSW,258,2.7,2.7,62,0.00,,BKN,0.00,VWS V13.01,2013-03-10 11:25:00,
2013-03-10 07:30:00,29.1,18.1,29.38,WSW,258,0.0,0.0,63,0.00,,BKN,0.00,VWS V13.01,2013-03-10 11:30:00,
2013-03-10 07:35:00,29.3,18.6,29.41,WSW,258,0.0,0.0,64,0.00,,BKN,0.00,VWS V13.01,2013-03-10 11:35:00,
2013-03-10 07:40:00,29.7,19.0,29.41,WSW,258,0.0,0.0,64,0.00,,BKN,0.00,VWS V13.01,2013-03-10 11:40:00,
2013-03-10 07:45:00,30.0,20.0,29.41,WSW,258,0.0,0.0,66,0.00,,BKN,0.00,VWS V13.01,2013-03-10 11:45:00,
2013-03-10 07:50:00,30.2,20.2,29.41,WSW,258,0.0,0.0,66,0.00,,BKN,0.00,VWS V13.01,2013-03-10 11:50:00,
2013-03-10 07:55:00,30.4,20.4,29.41,WSW,258,2.7,3.1,66,0.00,,BKN,0.00,VWS V13.01,2013-03-10 11:55:00,
2013-03-10 08:00:00,30.6,20.9,29.41,WSW,258,0.0,2.7,67,0.00,,BKN,0.00,VWS V13.01,2013-03-10 12:00:00,
2013-03-10 08:05:00,31.1,21.4,29.41,WSW,258,0.0,0.0,67,0.00,,BKN,0.00,VWS V13.01,2013-03-10 12:05:00,
2013-03-10 08:10:00,31.3,21.3,29.41,WSW,258,3.6,3.6,66,0.00,,BKN,0.00,VWS V13.01,2013-03-10 12:10:00,
2013-03-10 08:15:00,31.3,20.5,29.41,WNW,291,5.8,5.8,64,0.00,,BKN,0.00,VWS V13.01,2013-03-10 12:15:00,
2013-03-10 08:20:00,30.9,19.5,29.41,WNW,286,2.7,2.7,62,0.00,,BKN,0.00,VWS V13.01,2013-03-10 12:20:00,
2013-03-10 08:25:00,31.1,20.0,29.41,WNW,286,3.6,3.6,63,0.00,,BKN,0.00,VWS V13.01,2013-03-10 12:25:00,
2013-03-10 08:30:00,31.3,19.8,29.41,WNW,286,3.1,3.1,62,0.00,,BKN,0.00,VWS V13.01,2013-03-10 12:30:00,
2013-03-10 08:35:00,31.5,20.0,29.41,WNW,286,4.0,4.0,62,0.00,,BKN,0.00,VWS V13.01,2013-03-10 12:35:00,
2013-03-10 08:40:00,31.6,20.1,29.41,WNW,286,3.6,3.6,62,0.00,,BKN,0.00,VWS V13.01,2013-03-10 12:40:00,
2013-03-10 08:45:00,32.0,20.1,29.41,WNW,286,2.7,2.7,61,0.00,,BKN,0.00,VWS V13.01,2013-03-10 12:45:00,
2013-03-10 08:50:00,32.4,20.0,29.41,WNW,286,3.1,4.0,60,0.00,,BKN,0.00,VWS V13.01,2013-03-10 12:50:00,
2013-03-10 08:54:00,32.9,20.5,29.41,SW,230,4.5,4.9,60,0.00,,BKN,0.00,VWS V13.01,2013-03-10 12:54:00,
2013-03-10 08:59:00,33.4,20.7,29.41,SW,220,3.6,4.0,59,0.00,,BKN,0.00,VWS V13.01,2013-03-10 12:59:00,
2013-03-10 09:04:00,34.0,20.0,29.41,SSW,210,4.5,5.8,56,0.00,,BKN,0.00,VWS V13.01,2013-03-10 13:04:00,
2013-03-10 09:09:00,34.3,19.9,29.41,SSW,210,4.0,4.5,55,0.00,,BKN,0.00,VWS V13.01,2013-03-10 13:09:00,
2013-03-10 09:14:00,35.1,20.1,29.41,SSW,210,3.6,4.5,54,0.00,,BKN,0.00,VWS V13.01,2013-03-10 13:14:00,
2013-03-10 09:19:00,35.8,19.9,29.41,SSW,210,2.7,3.1,52,0.00,,BKN,0.00,VWS V13.01,2013-03-10 13:19:00,
2013-03-10 09:24:00,36.5,20.6,29.41,SSW,210,4.5,4.5,52,0.00,,BKN,0.00,VWS V13.01,2013-03-10 13:24:00,
2013-03-10 09:29:00,37.0,20.6,29.41,SSW,210,4.0,4.5,51,0.00,,BKN,0.00,VWS V13.01,2013-03-10 13:29:00,
2013-03-10 09:34:00,37.4,20.5,29.41,SSW,210,3.6,4.0,50,0.00,,BKN,0.00,VWS V13.01,2013-03-10 13:34:00,
2013-03-10 09:39:00,37.9,20.5,29.41,SSW,210,0.0,4.5,49,0.00,,BKN,0.00,VWS V13.01,2013-03-10 13:39:00,
2013-03-10 09:44:00,38.5,20.5,29.41,SSW,210,2.7,3.6,48,0.00,,BKN,0.00,VWS V13.01,2013-03-10 13:44:00,
2013-03-10 09:49:00,38.8,20.8,29.41,SSW,210,4.0,4.0,48,0.00,,BKN,0.00,VWS V13.01,2013-03-10 13:49:00,
2013-03-10 09:54:00,39.6,21.5,29.41,SSW,210,4.0,4.5,48,0.00,,BKN,0.00,VWS V13.01,2013-03-10 13:54:00,
2013-03-10 09:59:00,40.3,21.2,29.41,SSW,209,4.0,4.9,46,0.00,,BKN,0.00,VWS V13.01,2013-03-10 13:59:00,
2013-03-10 10:04:00,41.0,21.8,29.44,SSW,210,0.0,3.6,46,0.00,,BKN,0.00,VWS V13.01,2013-03-10 14:04:00,
2013-03-10 10:09:00,41.7,22.0,29.44,SSW,210,3.6,4.0,45,0.00,,BKN,0.00,VWS V13.01,2013-03-10 14:09:00,
2013-03-10 10:14:00,42.6,22.2,29.44,SSW,210,3.1,3.1,44,0.00,,BKN,0.00,VWS V13.01,2013-03-10 14:14:00,
2013-03-10 10:19:00,43.3,21.8,29.41,SSW,199,3.1,5.4,42,0.00,,BKN,0.00,VWS V13.01,2013-03-10 14:19:00,
2013-03-10 10:24:00,44.1,21.3,29.41,SSW,207,3.6,4.0,40,0.00,,BKN,0.00,VWS V13.01,2013-03-10 14:24:00,
2013-03-10 10:29:00,44.8,21.4,29.41,SSW,202,4.5,5.4,39,0.00,,BKN,0.00,VWS V13.01,2013-03-10 14:29:00,
2013-03-10 10:34:00,45.7,21.5,29.41,SSW,210,6.7,6.7,38,0.00,,BKN,0.00,VWS V13.01,2013-03-10 14:34:00,
2013-03-10 10:39:00,46.4,21.6,29.41,South,187,5.4,6.3,37,0.00,,BKN,0.00,VWS V13.01,2013-03-10 14:39:00,
2013-03-10 10:44:00,47.1,22.2,29.41,South,181,4.9,6.7,37,0.00,,BKN,0.00,VWS V13.01,2013-03-10 14:44:00,
2013-03-10 10:49:00,47.3,22.4,29.41,SSW,212,4.0,4.9,37,0.00,,BKN,0.00,VWS V13.01,2013-03-10 14:49:00,
2013-03-10 10:54:00,47.7,21.4,29.41,SSE,155,7.8,7.8,35,0.00,,BKN,0.00,VWS V13.01,2013-03-10 14:54:00,
2013-03-10 10:59:00,48.0,21.7,29.41,SSW,202,4.0,5.4,35,0.00,,BKN,0.00,VWS V13.01,2013-03-10 14:59:00,
2013-03-10 11:04:00,48.6,22.2,29.41,South,176,6.3,6.3,35,0.00,,BKN,0.00,VWS V13.01,2013-03-10 15:04:00,
2013-03-10 11:09:00,48.9,21.8,29.41,SSW,196,5.4,5.4,34,0.00,,BKN,0.00,VWS V13.01,2013-03-10 15:09:00,
2013-03-10 11:14:00,49.3,21.4,29.41,SSE,168,3.1,5.8,33,0.00,,BKN,0.00,VWS V13.01,2013-03-10 15:14:00,
2013-03-10 11:19:00,49.8,21.2,29.41,SSW,208,4.5,6.3,32,0.00,,BKN,0.00,VWS V13.01,2013-03-10 15:19:00,
2013-03-10 11:24:00,50.2,21.5,29.41,SW,229,4.5,4.5,32,0.00,,BKN,0.00,VWS V13.01,2013-03-10 15:24:00,
2013-03-10 11:29:00,50.5,21.8,29.41,ESE,112,3.1,4.0,32,0.00,,BKN,0.00,VWS V13.01,2013-03-10 15:29:00,
2013-03-10 11:34:00,50.7,22.0,29.41,SE,136,2.7,4.5,32,0.00,,BKN,0.00,VWS V13.01,2013-03-10 15:34:00,
2013-03-10 11:39:00,51.4,21.8,29.41,SSE,161,3.6,4.0,31,0.00,,BKN,0.00,VWS V13.01,2013-03-10 15:39:00,
2013-03-10 11:44:00,51.8,22.1,29.41,West,281,4.0,4.0,31,0.00,,BKN,0.00,VWS V13.01,2013-03-10 15:44:00,
2013-03-10 11:49:00,52.5,22.8,29.41,ENE,71,0.0,2.7,31,0.00,,BKN,0.00,VWS V13.01,2013-03-10 15:49:00,
2013-03-10 11:54:00,53.1,23.2,29.41,NE,45,4.5,4.9,31,0.00,,BKN,0.00,VWS V13.01,2013-03-10 15:54:00,
2013-03-10 11:59:00,53.6,23.7,29.41,NE,38,4.9,5.4,31,0.00,,BKN,0.00,VWS V13.01,2013-03-10 15:59:00,
2013-03-10 12:04:00,53.8,23.9,29.41,NE,34,4.0,5.4,31,0.00,,BKN,0.00,VWS V13.01,2013-03-10 16:04:00,
2013-03-10 12:09:00,53.8,23.1,29.41,SE,143,4.5,4.9,30,0.00,,BKN,0.00,VWS V13.01,2013-03-10 16:09:00,
2013-03-10 12:14:00,54.7,23.1,29.41,ESE,105,3.1,3.1,29,0.00,,BKN,0.00,VWS V13.01,2013-03-10 16:14:00,
2013-03-10 12:19:00,55.8,24.0,29.41,SSE,166,5.8,6.7,29,0.00,,BKN,0.00,VWS V13.01,2013-03-10 16:19:00,
2013-03-10 12:24:00,56.1,23.5,29.41,SE,145,6.9,6.9,28,0.00,,BKN,0.00,VWS V13.01,2013-03-10 16:24:00,
2013-03-10 12:29:00,55.9,23.3,29.41,SE,145,6.9,6.9,28,0.00,,BKN,0.00,VWS V13.01,2013-03-10 16:29:00,
2013-03-10 12:34:00,56.3,23.6,29.41,SE,145,6.9,6.9,28,0.00,,BKN,0.00,VWS V13.01,2013-03-10 16:34:00,
2013-03-10 12:39:00,56.3,22.8,29.41,SE,145,6.9,6.9,27,0.00,,BKN,0.00,VWS V13.01,2013-03-10 16:39:00,
2013-03-10 12:44:00,56.5,22.9,29.41,SE,145,6.9,6.9,27,0.00,,BKN,0.00,VWS V13.01,2013-03-10 16:44:00,
2013-03-10 12:49:00,57.0,23.4,29.38,SE,145,6.9,6.9,27,0.00,,BKN,0.00,VWS V13.01,2013-03-10 16:49:00,
2013-03-10 12:54:00,57.4,23.7,29.38,SE,145,6.9,6.9,27,0.00,,BKN,0.00,VWS V13.01,2013-03-10 16:54:00,
2013-03-10 12:59:00,57.9,24.2,29.38,SE,145,6.9,6.9,27,0.00,,BKN,0.00,VWS V13.01,2013-03-10 16:59:00,
2013-03-10 13:04:00,58.1,23.4,29.38,SE,145,6.9,6.9,26,0.00,,BKN,0.00,VWS V13.01,2013-03-10 17:04:00,
2013-03-10 13:09:00,58.1,23.4,29.38,SE,145,6.9,6.9,26,0.00,,BKN,0.00,VWS V13.01,2013-03-10 17:09:00,
2013-03-10 13:14:00,58.1,23.4,29.38,SE,145,6.9,6.9,26,0.00,,BKN,0.00,VWS V13.01,2013-03-10 17:14:00,
2013-03-10 13:19:00,59.0,24.2,29.38,SE,145,6.9,6.9,26,0.00,,BKN,0.00,VWS V13.01,2013-03-10 17:19:00,
2013-03-10 13:24:00,59.4,23.6,29.38,SE,145,6.9,6.9,25,0.00,,BKN,0.00,VWS V13.01,2013-03-10 17:24:00,
2013-03-10 13:29:00,59.7,24.8,29.38,SE,145,6.9,6.9,26,0.00,,BKN,0.00,VWS V13.01,2013-03-10 17:29:00,
2013-03-10 13:34:00,59.9,24.0,29.38,SE,145,6.9,6.9,25,0.00,,BKN,0.00,VWS V13.01,2013-03-10 17:34:00,
2013-03-10 13:39:00,59.9,24.0,29.38,SE,145,6.9,6.9,25,0.00,,BKN,0.00,VWS V13.01,2013-03-10 17:39:00,
2013-03-10 13:44:00,60.3,24.3,29.38,SE,145,6.9,6.9,25,0.00,,BKN,0.00,VWS V13.01,2013-03-10 17:44:00,
2013-03-10 13:49:00,60.6,24.6,29.35,SE,145,6.9,6.9,25,0.00,,BKN,0.00,VWS V13.01,2013-03-10 17:49:00,
2013-03-10 13:54:00,60.4,24.5,29.35,SE,145,6.9,6.9,25,0.00,,BKN,0.00,VWS V13.01,2013-03-10 17:54:00,
2013-03-10 13:59:00,60.8,24.8,29.35,SE,145,6.9,6.9,25,0.00,,BKN,0.00,VWS V13.01,2013-03-10 17:59:00,
2013-03-10 14:04:00,60.6,24.6,29.35,SE,145,6.9,6.9,25,0.00,,BKN,0.00,VWS V13.01,2013-03-10 18:04:00,
2013-03-10 14:09:00,60.8,24.8,29.35,SE,145,6.9,6.9,25,0.00,,BKN,0.00,VWS V13.01,2013-03-10 18:09:00,
2013-03-10 14:14:00,60.8,24.8,29.35,SE,145,6.9,6.9,25,0.00,,BKN,0.00,VWS V13.01,2013-03-10 18:14:00,
2013-03-10 14:19:00,61.0,24.9,29.35,SE,145,6.9,6.9,25,0.00,,BKN,0.00,VWS V13.01,2013-03-10 18:19:00,
2013-03-10 14:24:00,61.0,24.9,29.35,SE,145,6.9,6.9,25,0.00,,BKN,0.00,VWS V13.01,2013-03-10 18:24:00,
2013-03-10 14:29:00,61.3,25.2,29.35,SE,145,6.9,6.9,25,0.00,,BKN,0.00,VWS V13.01,2013-03-10 18:29:00,
2013-03-10 14:34:00,62.1,24.9,29.35,SE,145,6.9,6.9,24,0.00,,BKN,0.00,VWS V13.01,2013-03-10 18:34:00,
2013-03-10 14:39:00,61.7,24.6,29.35,SE,145,6.9,6.9,24,0.00,,BKN,0.00,VWS V13.01,2013-03-10 18:39:00,
2013-03-10 14:44:00,62.1,24.9,29.35,SE,145,6.9,6.9,24,0.00,,BKN,0.00,VWS V13.01,2013-03-10 18:44:00,
2013-03-10 14:49:00,62.2,25.0,29.32,SE,145,6.9,6.9,24,0.00,,BKN,0.00,VWS V13.01,2013-03-10 18:49:00,
2013-03-10 14:54:00,62.6,25.3,29.32,SE,145,6.9,6.9,24,0.00,,BKN,0.00,VWS V13.01,2013-03-10 18:54:00,
2013-03-10 14:59:00,62.2,25.0,29.32,SE,145,6.9,6.9,24,0.00,,BKN,0.00,VWS V13.01,2013-03-10 18:59:00,
2013-03-10 15:04:00,62.2,25.0,29.32,SE,145,6.9,6.9,24,0.00,,BKN,0.00,VWS V13.01,2013-03-10 19:04:00,
2013-03-10 15:09:00,61.7,25.5,29.32,SE,145,6.9,6.9,25,0.00,,BKN,0.00,VWS V13.01,2013-03-10 19:09:00,
2013-03-10 15:14:00,61.9,24.7,29.32,SE,145,6.9,6.9,24,0.00,,BKN,0.00,VWS V13.01,2013-03-10 19:14:00,
2013-03-10 15:19:00,61.3,25.2,29.32,SE,145,6.9,6.9,25,0.00,,BKN,0.00,VWS V13.01,2013-03-10 19:19:00,
2013-03-10 15:24:00,61.0,24.9,29.32,SE,145,6.9,6.9,25,0.00,,BKN,0.00,VWS V13.01,2013-03-10 19:24:00,
2013-03-10 15:29:00,60.8,24.8,29.32,SE,145,6.9,6.9,25,0.00,,BKN,0.00,VWS V13.01,2013-03-10 19:29:00,
2013-03-10 15:34:00,60.6,24.6,29.32,SE,145,6.9,6.9,25,0.00,,BKN,0.00,VWS V13.01,2013-03-10 19:34:00,
2013-03-10 15:39:00,61.2,25.1,29.32,SE,145,6.9,6.9,25,0.00,,BKN,0.00,VWS V13.01,2013-03-10 19:39:00,
2013-03-10 15:44:00,61.3,25.2,29.32,SE,145,6.9,6.9,25,0.00,,BKN,0.00,VWS V13.01,2013-03-10 19:44:00,
2013-03-10 15:49:00,61.7,25.5,29.32,SE,145,6.9,6.9,25,0.00,,BKN,0.00,VWS V13.01,2013-03-10 19:49:00,
2013-03-10 15:54:00,61.7,25.5,29.32,SE,145,6.9,6.9,25,0.00,,BKN,0.00,VWS V13.01,2013-03-10 19:54:00,
2013-03-10 15:59:00,61.5,25.4,29.32,SE,145,6.9,6.9,25,0.00,,BKN,0.00,VWS V13.01,2013-03-10 19:59:00,
2013-03-10 16:04:00,61.5,25.4,29.32,SE,145,6.9,6.9,25,0.00,,BKN,0.00,VWS V13.01,2013-03-10 20:04:00,
2013-03-10 16:09:00,61.5,25.4,29.32,SE,145,6.9,6.9,25,0.00,,BKN,0.00,VWS V13.01,2013-03-10 20:09:00,
2013-03-10 16:14:00,62.2,25.0,29.32,SE,145,6.9,6.9,24,0.00,,BKN,0.00,VWS V13.01,2013-03-10 20:14:00,
2013-03-10 16:19:00,61.9,24.7,29.32,SE,145,6.9,6.9,24,0.00,,BKN,0.00,VWS V13.01,2013-03-10 20:19:00,
2013-03-10 16:24:00,62.2,25.0,29.32,SE,145,6.9,6.9,24,0.00,,BKN,0.00,VWS V13.01,2013-03-10 20:24:00,
2013-03-10 16:29:00,62.4,25.2,29.32,SE,145,6.9,6.9,24,0.00,,BKN,0.00,VWS V13.01,2013-03-10 20:29:00,
2013-03-10 16:34:00,62.2,25.0,29.32,SE,145,6.9,6.9,24,0.00,,BKN,0.00,VWS V13.01,2013-03-10 20:34:00,
2013-03-10 16:39:00,62.1,24.9,29.32,SE,145,6.9,6.9,24,0.00,,BKN,0.00,VWS V13.01,2013-03-10 20:39:00,
2013-03-10 16:45:00,62.1,24.9,29.32,SE,145,6.9,6.9,24,0.00,,BKN,0.00,VWS V13.01,2013-03-10 20:45:00,
2013-03-10 16:50:00,62.2,25.0,29.32,SE,145,6.9,6.9,24,0.00,,BKN,0.00,VWS V13.01,2013-03-10 20:50:00,
2013-03-10 16:55:00,62.2,25.0,29.32,SE,145,6.9,6.9,24,0.00,,BKN,0.00,VWS V13.01,2013-03-10 20:55:00,
2013-03-10 17:00:00,62.1,24.9,29.32,SE,145,6.9,6.9,24,0.00,,BKN,0.00,VWS V13.01,2013-03-10 21:00:00,
2013-03-10 17:05:00,61.9,24.7,29.32,SE,145,6.9,6.9,24,0.00,,BKN,0.00,VWS V13.01,2013-03-10 21:05:00,
2013-03-10 17:09:00,61.7,25.5,29.32,SE,145,6.9,6.9,25,0.00,,BKN,0.00,VWS V13.01,2013-03-10 21:09:00,
2013-03-10 17:15:00,61.9,24.7,29.32,SE,145,6.9,6.9,24,0.00,,BKN,0.00,VWS V13.01,2013-03-10 21:15:00,
2013-03-10 17:19:00,61.7,25.5,29.29,SE,145,6.9,6.9,25,0.00,,BKN,0.00,VWS V13.01,2013-03-10 21:19:00,
2013-03-10 17:24:00,61.7,25.5,29.29,SE,145,6.9,6.9,25,0.00,,BKN,0.00,VWS V13.01,2013-03-10 21:24:00,
2013-03-10 17:29:00,61.7,25.5,29.29,SE,145,6.9,6.9,25,0.00,,BKN,0.00,VWS V13.01,2013-03-10 21:29:00,
2013-03-10 17:34:00,61.3,25.2,29.29,SE,145,6.9,6.9,25,0.00,,BKN,0.00,VWS V13.01,2013-03-10 21:34:00,
2013-03-10 17:39:00,61.5,25.4,29.29,SE,145,6.9,6.9,25,0.00,,BKN,0.00,VWS V13.01,2013-03-10 21:39:00,
2013-03-10 17:44:00,61.3,25.2,29.29,SE,145,6.9,6.9,25,0.00,,BKN,0.00,VWS V13.01,2013-03-10 21:44:00,
2013-03-10 17:49:00,61.2,25.1,29.29,SE,145,6.9,6.9,25,0.00,,BKN,0.00,VWS V13.01,2013-03-10 21:49:00,
2013-03-10 17:54:00,60.8,23.8,29.29,SSE,152,6.7,8.7,24,0.00,,BKN,0.00,VWS V13.01,2013-03-10 21:54:00,
2013-03-10 17:59:00,60.8,24.8,29.29,SSE,156,8.7,8.7,25,0.00,,BKN,0.00,VWS V13.01,2013-03-10 21:59:00,
2013-03-10 18:04:00,60.6,23.6,29.29,South,170,6.7,9.6,24,0.00,,BKN,0.00,VWS V13.01,2013-03-10 22:04:00,
2013-03-10 18:09:00,60.4,23.5,29.29,SSE,148,6.7,8.3,24,0.00,,BKN,0.00,VWS V13.01,2013-03-10 22:09:00,
2013-03-10 18:14:00,60.3,23.4,29.29,SSE,149,4.9,11.0,24,0.00,,BKN,0.00,VWS V13.01,2013-03-10 22:14:00,
2013-03-10 18:19:00,60.1,24.2,29.29,SSE,165,5.8,6.3,25,0.00,,BKN,0.00,VWS V13.01,2013-03-10 22:19:00,
2013-03-10 18:24:00,59.9,23.0,29.29,South,184,6.3,10.5,24,0.00,,BKN,0.00,VWS V13.01,2013-03-10 22:24:00,
2013-03-10 18:29:00,59.7,23.9,29.29,SE,128,4.0,6.9,25,0.00,,BKN,0.00,VWS V13.01,2013-03-10 22:29:00,
2013-03-10 18:34:00,59.4,23.6,29.29,SE,146,6.7,6.7,25,0.00,,BKN,0.00,VWS V13.01,2013-03-10 22:34:00,
2013-03-10 18:39:00,59.2,23.4,29.29,East,100,5.8,6.3,25,0.00,,BKN,0.00,VWS V13.01,2013-03-10 22:39:00,
2013-03-10 18:44:00,59.0,23.2,29.29,SE,144,6.7,6.9,25,0.00,,BKN,0.00,VWS V13.01,2013-03-10 22:44:00,
2013-03-10 18:49:00,58.6,22.9,29.32,SSE,152,5.8,5.8,25,0.00,,BKN,0.00,VWS V13.01,2013-03-10 22:49:00,
2013-03-10 18:54:00,58.3,22.6,29.32,SSE,150,6.7,6.7,25,0.00,,BKN,0.00,VWS V13.01,2013-03-10 22:54:00,
2013-03-10 18:59:00,58.1,22.5,29.32,SSE,166,5.4,5.4,25,0.00,,BKN,0.00,VWS V13.01,2013-03-10 22:59:00,
2013-03-10 19:04:00,57.9,22.3,29.32,SSE,162,4.9,6.9,25,0.00,,BKN,0.00,VWS V13.01,2013-03-10 23:04:00,
2013-03-10 19:09:00,57.6,22.0,29.32,South,170,4.0,6.9,25,0.00,,BKN,0.00,VWS V13.01,2013-03-10 23:09:00,
2013-03-10 19:14:00,57.2,22.6,29.32,SSW,201,4.0,4.9,26,0.00,,BKN,0.00,VWS V13.01,2013-03-10 23:14:00,
2013-03-10 19:19:00,57.0,22.5,29.32,South,174,4.5,5.8,26,0.00,,BKN,0.00,VWS V13.01,2013-03-10 23:19:00,
2013-03-10 19:24:00,56.8,22.3,29.32,South,179,4.9,5.8,26,0.00,,BKN,0.00,VWS V13.01,2013-03-10 23:24:00,
2013-03-10 19:29:00,56.7,22.2,29.32,SSE,154,4.5,7.4,26,0.00,,BKN,0.00,VWS V13.01,2013-03-10 23:29:00,
2013-03-10 19:34:00,56.5,22.0,29.32,SE,145,4.9,5.8,26,0.00,,BKN,0.00,VWS V13.01,2013-03-10 23:34:00,
2013-03-10 19:39:00,56.3,21.9,29.32,South,170,4.9,7.4,26,0.00,,BKN,0.00,VWS V13.01,2013-03-10 23:39:00,
2013-03-10 19:44:00,56.1,21.7,29.32,ESE,122,4.0,5.8,26,0.00,,BKN,0.00,VWS V13.01,2013-03-10 23:44:00,
2013-03-10 19:49:00,55.9,21.6,29.32,SE,130,4.5,5.4,26,0.00,,BKN,0.00,VWS V13.01,2013-03-10 23:49:00,
2013-03-10 19:54:00,55.9,21.6,29.32,ESE,118,4.5,5.4,26,0.00,,BKN,0.00,VWS V13.01,2013-03-10 23:54:00,
2013-03-10 19:59:00,55.8,21.4,29.32,SSE,152,4.5,6.9,26,0.00,,BKN,0.00,VWS V13.01,2013-03-10 23:59:00,
2013-03-10 20:04:00,55.6,21.3,29.32,ESE,116,6.3,6.3,26,0.00,,BKN,0.00,VWS V13.01,2013-03-11 00:04:00,
2013-03-10 20:09:00,55.4,21.1,29.32,SSE,155,5.4,5.4,26,0.00,,BKN,0.00,VWS V13.01,2013-03-11 00:09:00,
2013-03-10 20:14:00,55.2,21.0,29.32,SE,146,4.0,4.0,26,0.00,,BKN,0.00,VWS V13.01,2013-03-11 00:14:00,
2013-03-10 20:19:00,54.9,20.6,29.32,ESE,111,6.3,6.3,26,0.00,,BKN,0.00,VWS V13.01,2013-03-11 00:19:00,
2013-03-10 20:24:00,54.5,20.3,29.32,SSE,147,3.6,4.0,26,0.00,,BKN,0.00,VWS V13.01,2013-03-11 00:24:00,
2013-03-10 20:29:00,54.3,20.2,29.32,SSE,152,4.0,4.9,26,0.00,,BKN,0.00,VWS V13.01,2013-03-11 00:29:00,
2013-03-10 20:36:00,54.3,20.2,29.32,SSE,156,2.7,2.7,26,0.00,,BKN,0.00,VWS V13.01,2013-03-11 00:36:00,
2013-03-10 20:41:00,54.1,20.0,29.32,ESE,107,4.5,5.8,26,0.00,,BKN,0.00,VWS V13.01,2013-03-11 00:41:00,
2013-03-10 20:46:00,54.1,20.0,29.32,ESE,117,4.5,6.9,26,0.00,,BKN,0.00,VWS V13.01,2013-03-11 00:46:00,
2013-03-10 20:51:00,54.0,19.9,29.32,ESE,111,4.9,5.4,26,0.00,,BKN,0.00,VWS V13.01,2013-03-11 00:51:00,
2013-03-10 20:56:00,53.8,19.7,29.32,ESE,120,4.5,4.5,26,0.00,,BKN,0.00,VWS V13.01,2013-03-11 00:56:00,
2013-03-10 21:01:00,53.6,19.6,29.32,ESE,110,4.9,6.3,26,0.00,,BKN,0.00,VWS V13.01,2013-03-11 01:01:00,
2013-03-10 21:06:00,53.6,19.6,29.32,ESE,107,4.5,4.9,26,0.00,,BKN,0.00,VWS V13.01,2013-03-11 01:06:00,
2013-03-10 21:11:00,53.6,20.5,29.32,ESE,121,4.5,4.9,27,0.00,,BKN,0.00,VWS V13.01,2013-03-11 01:11:00,
2013-03-10 21:16:00,53.4,20.3,29.32,ESE,121,3.6,4.9,27,0.00,,BKN,0.00,VWS V13.01,2013-03-11 01:16:00,
2013-03-10 21:21:00,53.2,20.1,29.32,ESE,108,6.3,6.3,27,0.00,,BKN,0.00,VWS V13.01,2013-03-11 01:21:00,
2013-03-10 21:26:00,53.1,20.0,29.32,South,189,0.0,0.0,27,0.00,,BKN,0.00,VWS V13.01,2013-03-11 01:26:00,
2013-03-10 21:31:00,52.9,19.8,29.32,SSE,164,3.1,5.8,27,0.00,,BKN,0.00,VWS V13.01,2013-03-11 01:31:00,
2013-03-10 21:36:00,52.9,19.8,29.32,SSE,167,0.0,0.0,27,0.00,,BKN,0.00,VWS V13.01,2013-03-11 01:36:00,
2013-03-10 21:41:00,52.7,19.7,29.32,SSE,167,0.0,3.1,27,0.00,,BKN,0.00,VWS V13.01,2013-03-11 01:41:00,
2013-03-10 21:46:00,52.3,19.4,29.32,SSE,167,0.0,2.7,27,0.00,,BKN,0.00,VWS V13.01,2013-03-11 01:46:00,
2013-03-10 21:51:00,52.2,19.2,29.32,SSE,167,0.0,0.0,27,0.00,,BKN,0.00,VWS V13.01,2013-03-11 01:51:00,
2013-03-10 21:55:00,52.0,19.1,29.32,SSE,167,0.0,3.6,27,0.00,,BKN,0.00,VWS V13.01,2013-03-11 01:55:00,
2013-03-10 22:00:00,52.0,19.1,29.32,SSE,167,0.0,0.0,27,0.00,,BKN,0.00,VWS V13.01,2013-03-11 02:00:00,
2013-03-10 22:05:00,51.8,18.9,29.32,SSE,167,0.0,0.0,27,0.00,,BKN,0.00,VWS V13.01,2013-03-11 02:05:00,
2013-03-10 22:10:00,51.8,18.9,29.32,SSE,167,3.6,4.0,27,0.00,,BKN,0.00,VWS V13.01,2013-03-11 02:10:00,
2013-03-10 22:15:00,51.4,18.6,29.32,SSE,167,0.0,0.0,27,0.00,,BKN,0.00,VWS V13.01,2013-03-11 02:15:00,
2013-03-10 22:20:00,51.1,18.3,29.32,SSE,167,0.0,2.7,27,0.00,,BKN,0.00,VWS V13.01,2013-03-11 02:20:00,
2013-03-10 22:25:00,50.9,18.1,29.32,East,79,3.1,4.0,27,0.00,,BKN,0.00,VWS V13.01,2013-03-11 02:25:00,
2013-03-10 22:30:00,50.9,18.1,29.32,East,79,0.0,0.0,27,0.00,,BKN,0.00,VWS V13.01,2013-03-11 02:30:00,
2013-03-10 22:35:00,50.9,18.1,29.32,East,79,0.0,3.1,27,0.00,,BKN,0.00,VWS V13.01,2013-03-11 02:35:00,
2013-03-10 22:40:00,50.7,18.0,29.32,East,79,0.0,0.0,27,0.00,,BKN,0.00,VWS V13.01,2013-03-11 02:40:00,
2013-03-10 22:45:00,50.5,17.8,29.32,East,79,2.7,2.7,27,0.00,,BKN,0.00,VWS V13.01,2013-03-11 02:45:00,
2013-03-10 22:50:00,50.5,17.8,29.32,East,80,0.0,2.7,27,0.00,,BKN,0.00,VWS V13.01,2013-03-11 02:50:00,
2013-03-10 22:55:00,50.4,17.7,29.32,East,82,0.0,2.7,27,0.00,,BKN,0.00,VWS V13.01,2013-03-11 02:55:00,
2013-03-10 23:00:00,50.2,17.5,29.32,East,82,0.0,3.1,27,0.00,,BKN,0.00,VWS V13.01,2013-03-11 03:00:00,
2013-03-10 23:05:00,50.2,17.5,29.32,East,82,3.6,4.0,27,0.00,,BKN,0.00,VWS V13.01,2013-03-11 03:05:00,
2013-03-10 23:10:00,50.2,17.5,29.32,East,82,0.0,3.6,27,0.00,,BKN,0.00,VWS V13.01,2013-03-11 03:10:00,
2013-03-10 23:15:00,50.2,17.5,29.32,East,101,4.0,4.0,27,0.00,,BKN,0.00,VWS V13.01,2013-03-11 03:15:00,
2013-03-10 23:20:00,50.2,17.5,29.32,ESE,117,5.8,6.7,27,0.00,,BKN,0.00,VWS V13.01,2013-03-11 03:20:00,
2013-03-10 23:25:00,50.0,17.4,29.32,ESE,117,0.0,3.1,27,0.00,,BKN,0.00,VWS V13.01,2013-03-11 03:25:00,
2013-03-10 23:30:00,50.0,18.2,29.29,SE,126,3.6,4.0,28,0.00,,BKN,0.00,VWS V13.01,2013-03-11 03:30:00,
2013-03-10 23:35:00,49.6,17.9,29.29,SE,131,2.7,3.6,28,0.00,,BKN,0.00,VWS V13.01,2013-03-11 03:35:00,
2013-03-10 23:40:00,49.5,17.7,29.29,ESE,119,3.6,4.0,28,0.00,,BKN,0.00,VWS V13.01,2013-03-11 03:40:00,
2013-03-10 23:45:00,49.5,17.7,29.29,ESE,108,4.0,4.9,28,0.00,,BKN,0.00,VWS V13.01,2013-03-11 03:45:00,
2013-03-10 23:50:00,49.3,17.6,29.29,SSE,148,5.4,5.4,28,0.00,,BKN,0.00,VWS V13.01,2013-03-11 03:50:00,
2013-03-10 23:55:00,49.5,17.7,29.29,ESE,115,4.9,4.9,28,0.00,,BKN,0.00,VWS V13.01,2013-03-11 03:55:00,